This is the latest recevied weather packets stored in our database for station/object K5UBE. If no packets are shown the sender has not sent any weather packets the latest 10 day(s).
| Time | Temp. | Humidity | Pressure | Rain* | Wind** | Luminosity | Snow |
|---|---|---|---|---|---|---|---|
| 1777581051 | 16.11° C | 46% | 1018.1 hPa | 0 mm | - | - | - |
| 1777580750 | 16.11° C | 47% | 1017.9 hPa | 0 mm | - | - | - |
| 1777580448 | 15.56° C | 47% | 1017.9 hPa | 0 mm | - | - | - |
| 1777580142 | 15° C | 48% | 1018 hPa | 0 mm | - | - | - |
| 1777579840 | 15.56° C | 46% | 1018 hPa | 0 mm | - | - | - |
| 1777579538 | 15.56° C | 48% | 1018 hPa | 0 mm | - | - | - |
| 1777579233 | 15° C | 48% | 1018.2 hPa | 0 mm | - | - | - |
| 1777578929 | 15.56° C | 47% | 1018.4 hPa | 0 mm | - | - | - |
| 1777578624 | 15.56° C | 48% | 1018.3 hPa | 0 mm | - | - | - |
| 1777578323 | 15° C | 48% | 1018.1 hPa | 0 mm | - | - | - |
| 1777578020 | 15° C | 49% | 1018.2 hPa | 0 mm | - | - | - |
| 1777577715 | 15° C | 49% | 1018.3 hPa | 0 mm | - | - | - |
| 1777577412 | 15° C | 49% | 1018.1 hPa | 0 mm | - | - | - |
| 1777577109 | 15° C | 49% | 1018.2 hPa | 0 mm | - | - | - |
| 1777576805 | 15° C | 48% | 1018.4 hPa | 0 mm | - | - | - |
| 1777576504 | 15.56° C | 48% | 1018.2 hPa | 0 mm | - | - | - |
| 1777576201 | 14.44° C | 49% | 1018.3 hPa | 0 mm | - | - | - |
| 1777575896 | 14.44° C | 50% | 1018.3 hPa | 0 mm | - | - | - |
| 1777575593 | 15° C | 49% | 1018.3 hPa | 0 mm | - | - | - |
| 1777575289 | 14.44° C | 52% | 1018.4 hPa | 0 mm | - | - | - |
| 1777574985 | 14.44° C | 51% | 1018.5 hPa | 0 mm | - | - | - |
| 1777574682 | 15° C | 50% | 1018.5 hPa | 0 mm | - | - | - |
| 1777574379 | 14.44° C | 51% | 1018.7 hPa | 0 mm | - | - | - |
| 1777574079 | 14.44° C | 51% | 1018.8 hPa | 0 mm | - | - | - |
| 1777573774 | 14.44° C | 51% | 1018.8 hPa | 0 mm | - | - | - |
* Rain latest hour (hover to see other rain measurements)
** Current wind speed in m/s (hover to see current wind gust speed)